Amateur Radio Satellites - All Passes

Search period start: 20 June 2013 05:06
Search period end: 21 June 2013 05:06
Location: Edisto_Beach, 32.4790°N, 80.3350°W

Satellite Date Start Highest point End Downlink Frequencies (MHz)
Time Altitude Azimuth
AO-Echo 20 Jun 05:18:17 05:21:51 19° 292° (WNW) 05:25:27 ?
AO-7 20 Jun 05:28:44 05:36:12 35° 99° (E) 05:43:36 29.400 - 29.500 MHz
Uosat F 20 Jun 05:37:45 05:42:12 32° 289° (WNW) 05:46:39 435.120 FM
TMSAT-1 20 Jun 05:47:07 05:52:09 45° 287° (WNW) 05:57:10 436.925 FM
MaSat-1 20 Jun 06:03:37 06:06:06 72° 68° (ENE) 06:08:45 437.345 MHz
Gurwin Techsat 1B 20 Jun 06:30:42 06:32:35 12° 296° (WNW) 06:34:27 435.225 FM
STRAND 1 20 Jun 07:04:47 07:09:54 88° 75° (ENE) 07:15:04 ?
Saudisat 1A 20 Jun 07:15:55 07:19:54 30° 55° (NE) 07:23:48 436.775 MHz
AO-7 20 Jun 07:21:12 07:28:57 44° 294° (WNW) 07:36:40 29.400 - 29.500 MHz
JAS-1B 20 Jun 07:54:05 07:59:15 28° 99° (E) 08:05:03 435.800 - 435.900 CW/SSB
Hamsat 20 Jun 08:10:24 08:14:46 68° 101° (E) 08:19:04 145.90 MHz
SO-67 20 Jun 08:29:16 08:32:25 29° 97° (E) 08:35:33 435.3500 MHz FM
Saudisat 1A 20 Jun 08:55:58 08:59:23 21° 250° (WSW) 09:02:43 436.775 MHz
Sapphire 20 Jun 09:42:49 09:46:24 18° 53° (NE) 09:49:58 437.095 MHz 1200 baud AX-25 AFSK
JAS-1B 20 Jun 09:44:25 09:49:51 37° 289° (WNW) 09:56:01 435.800 - 435.900 CW/SSB
HO-68 20 Jun 09:46:28 09:52:07 25° 96° (E) 09:57:44 435.675 MHz FM
SO-67 20 Jun 10:04:02 10:05:33 12° 290° (WNW) 10:07:04 435.3500 MHz FM
SO-50 20 Jun 10:10:25 10:14:04 24° 54° (NE) 10:17:41 436.795 FM
PCSat 20 Jun 10:50:08 10:55:34 73° 64° (ENE) 11:00:57 145.825 MHz
JAS-2 20 Jun 11:04:50 11:10:08 83° 284° (WNW) 11:15:17 435.800 - 435.900 CW/SSB, 435.910 FM
RS-15 20 Jun 11:05:51 11:17:08 47° 109° (ESE) 11:27:58 29.354 - 29.394 USB, Beacon 29.352 USB
OPAL 20 Jun 11:14:29 11:18:05 20° 98° (E) 11:21:42 ?
Sapphire 20 Jun 11:24:51 11:30:10 56° 249° (WSW) 11:35:26 437.095 MHz 1200 baud AX-25 AFSK
Oscar 11 20 Jun 11:29:42 11:33:59 55° 285° (WNW) 11:38:14 145.825 FM, Beacon 2401.500 USB
HO-68 20 Jun 11:33:05 11:39:59 52° 290° (WNW) 11:46:52 435.675 MHz FM
SO-50 20 Jun 11:50:47 11:54:37 28° 248° (WSW) 11:58:25 436.795 FM
PCSat 20 Jun 12:36:59 12:38:16 11° 258° (WSW) 12:39:34 145.825 MHz
OPAL 20 Jun 12:52:29 12:57:01 36° 290° (WNW) 13:01:35 ?
Oscar 16 20 Jun 13:02:56 13:05:01 12° 64° (ENE) 13:07:05 437.025 USB, Beacon 2401.1428
RS-15 20 Jun 13:18:07 13:29:28 47° 307° (NW) 13:40:26 29.354 - 29.394 USB, Beacon 29.352 USB
Uribyol 2 20 Jun 13:18:12 13:20:28 13° 64° (ENE) 13:22:43 436.500 FM
UOSAT-12 20 Jun 13:24:00 13:28:29 50° 59° (ENE) 13:32:57 437.025 FM, 437.400 FM
Oscar 19 20 Jun 13:53:50 13:58:31 36° 71° (ENE) 14:03:11 437.125 CW, 437.150 USB
ITAMSAT 1 20 Jun 14:21:01 14:26:04 55° 74° (ENE) 14:31:10 435.822 SSB
AO-27 20 Jun 14:22:24 14:27:29 59° 74° (ENE) 14:32:38 436.795 MHz FM
Oscar 16 20 Jun 14:38:38 14:43:46 65° 258° (WSW) 14:48:55 437.025 USB, Beacon 2401.1428
AO-Echo 20 Jun 14:47:43 14:51:51 32° 71° (ENE) 14:56:04 ?
ISS 20 Jun 14:53:20 14:56:23 36° 131° (SE) 14:59:26 145.800 FM
Uribyol 2 20 Jun 14:54:11 14:59:20 64° 258° (WSW) 15:04:33 436.500 FM
UOSAT-12 20 Jun 15:05:59 15:08:11 13° 252° (WSW) 15:10:23 437.025 FM, 437.400 FM
Uosat F 20 Jun 15:08:59 15:12:34 20° 68° (ENE) 15:16:09 435.120 FM
TMSAT-1 20 Jun 15:25:21 15:28:52 18° 67° (ENE) 15:32:23 436.925 FM
Oscar 19 20 Jun 15:34:02 15:37:53 21° 265° (W) 15:41:45 437.125 CW, 437.150 USB
RS-15 20 Jun 15:41:01 15:45:51 13° 335° (NNW) 15:50:38 29.354 - 29.394 USB, Beacon 29.352 USB
ITAMSAT 1 20 Jun 16:03:17 16:05:51 14° 267° (W) 16:08:25 435.822 SSB
Gurwin Techsat 1B 20 Jun 16:04:28 16:09:44 70° 75° (ENE) 16:15:01 435.225 FM
AO-27 20 Jun 16:05:04 16:07:19 13° 267° (W) 16:09:35 436.795 MHz FM
AO-7 20 Jun 16:23:04 16:30:11 33° 63° (ENE) 16:37:18 29.400 - 29.500 MHz
KITSAT 1 20 Jun 16:23:47 16:30:23 29° 105° (ESE) 16:37:00 435.175 FM
AO-Echo 20 Jun 16:27:17 16:30:40 20° 265° (W) 16:34:08 ?
ISS 20 Jun 16:30:51 16:33:10 18° 325° (NW) 16:35:28 145.800 FM
Uosat F 20 Jun 16:46:27 16:51:03 37° 261° (W) 16:55:42 435.120 FM
TMSAT-1 20 Jun 17:03:20 17:08:23 46° 261° (W) 17:13:29 436.925 FM
Gurwin Techsat 1B 20 Jun 17:49:02 17:50:07 11° 268° (W) 17:51:11 435.225 FM
RS-15 20 Jun 18:04:57 18:06:12 10° 16° (NNE) 18:07:27 29.354 - 29.394 USB, Beacon 29.352 USB
AO-7 20 Jun 18:14:40 18:22:35 48° 258° (WSW) 18:30:36 29.400 - 29.500 MHz
KITSAT 1 20 Jun 18:17:30 18:25:18 52° 301° (WNW) 18:33:11 435.175 FM
JAS-1B 20 Jun 18:37:31 18:41:12 16° 66° (ENE) 18:44:38 435.800 - 435.900 CW/SSB
MaSat-1 20 Jun 18:48:11 18:52:50 24° 108° (ESE) 18:56:45 437.345 MHz
Hamsat 20 Jun 19:00:19 19:03:58 27° 72° (ENE) 19:07:40 145.90 MHz
STRAND 1 20 Jun 19:20:26 19:25:21 44° 100° (E) 19:30:14 ?
RS-15 20 Jun 20:13:42 20:23:33 35° 48° (NE) 20:33:10 29.354 - 29.394 USB, Beacon 29.352 USB
HO-68 20 Jun 20:14:21 20:16:23 11° 57° (ENE) 20:18:25 435.675 MHz FM
KITSAT 1 20 Jun 20:21:22 20:22:45 10° 323° (NW) 20:24:07 435.175 FM
JAS-1B 20 Jun 20:24:12 20:31:28 68° 257° (WSW) 20:37:37 435.800 - 435.900 CW/SSB
MaSat-1 20 Jun 20:29:22 20:34:35 34° 294° (WNW) 20:38:47 437.345 MHz
SO-67 20 Jun 20:33:17 20:36:49 66° 260° (W) 20:40:22 435.3500 MHz FM
Hamsat 20 Jun 20:36:50 20:39:59 20° 265° (W) 20:43:11 145.90 MHz
STRAND 1 20 Jun 21:00:45 21:04:09 18° 293° (WNW) 21:07:33 ?
PANSAT 20 Jun 21:01:55 21:05:16 28° 165° (SSE) 21:08:37 not established
JAS-2 20 Jun 21:11:11 21:17:20 29° 69° (ENE) 21:22:59 435.800 - 435.900 CW/SSB, 435.910 FM
Saudisat 1A 20 Jun 21:19:13 21:22:49 24° 110° (ESE) 21:26:28 436.775 MHz
HO-68 20 Jun 21:55:47 22:02:53 77° 73° (ENE) 22:10:03 435.675 MHz FM
Oscar 11 20 Jun 22:20:11 22:24:29 63° 76° (ENE) 22:28:49 145.825 FM, Beacon 2401.500 USB
OPAL 20 Jun 22:25:20 22:29:10 22° 67° (ENE) 22:32:58 ?
RS-15 20 Jun 22:25:41 22:36:19 60° 249° (WSW) 22:46:54 29.354 - 29.394 USB, Beacon 29.352 USB
PANSAT 20 Jun 22:41:36 22:45:19 45° 177° (S) 22:49:03 not established
JAS-2 20 Jun 22:54:57 23:02:05 45° 260° (W) 23:08:36 435.800 - 435.900 CW/SSB, 435.910 FM
Saudisat 1A 20 Jun 22:58:23 23:02:21 29° 305° (NW) 23:06:22 436.775 MHz
ISS 20 Jun 23:01:55 23:05:09 61° 43° (NE) 23:08:23 145.800 FM
PCSat 20 Jun 23:46:05 23:49:39 18° 105° (ESE) 23:53:14 145.825 MHz
HO-68 20 Jun 23:47:18 23:51:07 15° 267° (W) 23:54:57 435.675 MHz FM
OPAL 21 Jun 00:03:17 00:07:50 34° 260° (W) 00:12:21 ?
Sapphire 21 Jun 00:19:10 00:24:05 37° 109° (ESE) 00:29:01 437.095 MHz 1200 baud AX-25 AFSK
SO-50 21 Jun 00:21:33 00:25:19 23° 111° (ESE) 00:29:04 436.795 FM
PANSAT 21 Jun 00:21:50 00:25:26 36° 190° (S) 00:29:01 not established
PCSat 21 Jun 01:27:27 01:32:38 47° 299° (WNW) 01:37:52 145.825 MHz
SO-50 21 Jun 02:01:30 02:05:45 32° 304° (NW) 02:09:59 436.795 FM
PANSAT 21 Jun 02:02:57 02:05:21 16° 202° (SSW) 02:07:45 not established
Sapphire 21 Jun 02:03:10 02:07:33 25° 304° (NW) 02:11:57 437.095 MHz 1200 baud AX-25 AFSK
Oscar 19 21 Jun 02:11:01 02:14:31 18° 95° (E) 02:18:00 437.125 CW, 437.150 USB
KITSAT 1 21 Jun 02:15:54 02:23:17 36° 55° (NE) 02:30:36 435.175 FM
ITAMSAT 1 21 Jun 02:39:09 02:43:40 29° 97° (E) 02:48:09 435.822 SSB
AO-27 21 Jun 02:40:38 02:45:15 31° 98° (E) 02:49:50 436.795 MHz FM
Oscar 16 21 Jun 02:55:09 03:00:15 66° 102° (ESE) 03:05:20 437.025 USB, Beacon 2401.1428
AO-Echo 21 Jun 03:00:06 03:03:27 17° 94° (E) 03:06:49 ?
Uribyol 2 21 Jun 03:11:45 03:16:57 68° 102° (ESE) 03:22:06 436.500 FM
UOSAT-12 21 Jun 03:31:12 03:35:27 43° 114° (ESE) 03:39:45 437.025 FM, 437.400 FM
Oscar 19 21 Jun 03:49:13 03:53:58 40° 288° (WNW) 03:58:42 437.125 CW, 437.150 USB
KITSAT 1 21 Jun 04:11:07 04:18:41 44° 251° (WSW) 04:26:13 435.175 FM
ITAMSAT 1 21 Jun 04:18:42 04:23:01 27° 291° (WNW) 04:27:20 435.822 SSB
AO-27 21 Jun 04:20:22 04:24:35 25° 291° (WNW) 04:28:48 436.795 MHz FM
Gurwin Techsat 1B 21 Jun 04:25:41 04:30:42 41° 99° (E) 04:35:41 435.225 FM
AO-7 21 Jun 04:33:25 04:35:38 11° 91° (E) 04:37:50 29.400 - 29.500 MHz
Oscar 16 21 Jun 04:37:08 04:39:00 12° 296° (WNW) 04:40:52 437.025 USB, Beacon 2401.1428
AO-Echo 21 Jun 04:37:23 04:42:21 46° 287° (WNW) 04:47:24 ?
Uribyol 2 21 Jun 04:53:54 04:55:47 12° 296° (WNW) 04:57:41 436.500 FM

Developed and maintained by Chris Peat, Heavens-Above GmbH. Please read the updated FAQ before sending e-mail. Imprint. DLR
